User: anonymous   Login
Location: Caltech
(34.1382°N, 118.1253°W)
Time: 20:07:27
(UTC-07:00)
Language:

Aureole 3 Rocket - Orbit

View from above orbital plane
View from above orbital plane
View from above satellite
View from above satellite

Ground track
Ground track

The orbit data is extracted from the following two-line orbital elements,

1 12849U 81094B   18147.38919703 +.00000279 +00000-0 +24251-4 0  9993
2 12849 082.4932 262.5476 0901788 209.3301 145.4239 13.50349437788399
Epoch (UTC): 27 May 2018 09:20:26
Eccentricity: 0.0901788
inclination: 82.4932°
perigee height: 399 km
apogee height: 1743 km
right ascension of ascending node: 262.5476°
argument of perigee: 209.3301°
revolutions per day: 13.50349437
mean anomaly at epoch: 145.4239°
orbit number at epoch: 78839

The dashed part of the orbit path shows where the satellite is in the earth's shadow,  

DLR